Find Starlink 37354

NORAD ID: 68743 Int'l Des: 2026-082 Owner: SPXS Country: US Constellation: starlink operational
LEOCIRCULARRETROGRADE

Current View

Loading 3D Globe...

About Starlink 37354

Description loading...

Upcoming Passes

Passes for default location (London). Set your location on the main map for personalized predictions.

Altitude History

Loading altitude history...

Two-Line Element Set

1 68743U 26082R 26150.59516383 .00054713 00000-0 99944-3 0 9998
2 68743 97.2822 14.3654 0002112 97.1899 262.9592 15.49223568 7009
Epoch: May 30, 2026 • Age: 13 hours

Current Status

Altitude 430.9 km
Velocity 7.66 km/s
Sub-Earth Point 82.24°N, 11.59°E
Launch Date Apr 15, 2026
Age 0.1 years
Type internet

Technical Details

Classification Payload
Mass 575.00 kg
Dry Mass 530.00 kg
Total Mass 575.00 kg
Length 0.30 m
Diameter 4.10 m
Span 29.00 m
Shape Box + pan
Manufacturer SPXS
Bus Type Starlink V2MO
Phase Status In Orbit
Owner/State SPXS/US

Most Searched